Glasgow, United Kingdom

4:22 AM GMT on February 08, 2016 (GMT +0000)
Glasgow

Weather History for EGPF - February, 2013

Change the Weather History Date:

Saturday, February 9, 2013

  Actual Average Record
Temperature  
Mean Temperature 39 °F -  
Max Temperature 41 °F 45 °F 53 °F (2008)
Min Temperature 37 °F 33 °F 21 °F (2001)
Degree Days  
Heating Degree Days 26    
Moisture  
Dew Point 38 °F    
Average Humidity 95    
Maximum Humidity 100    
Minimum Humidity 93    
Precipitation  
Precipitation 0.00 in - - ()
Sea Level Pressure  
Sea Level Pressure 30.00 in    
Wind  
Wind Speed 5 mph ()    
Max Wind Speed 10 mph    
Max Gust Speed -    
Visibility 3.3 miles    
Events Fog , Rain    
Averages and records for this station are not official NWS values.
T = Trace of Precipitation, MM = Missing Value Source: Averaged Metar Reports

Daily Weather History Graph

Daily Weather History Graph

Search for Another Location

Airport or City:

Trip Planner

Search our weather history database for the weather conditions in past years. The results will help you decide how hot, cold, wet, or windy it might be!

Date:

Astronomy

Feb. 09, 2013 Rise Set
Actual Time 7:55 AM GMT 5:09 PM GMT
Civil Twilight 7:16 AM GMT 5:48 PM GMT
Nautical Twilight 6:32 AM GMT 6:32 PM GMT
Astronomical Twilight 5:49 AM GMT 7:15 PM GMT
Moon 6:58 AM GMT (2/9) 4:38 PM GMT (2/9)
Length of Visible Light 10h 32m
Length of Day
9h 13m
Waning Crescent, 1% of the Moon is Illuminated
Feb 9
Waning Crescent
Feb 10
New
Feb 17
First Quarter
Feb 25
Full
Mar 4
Last Quarter

Hourly Weather History & Observations

Time (GMT) Temp. Windchill Dew Point Humidity Pressure Visibility Wind Dir Wind Speed Gust Speed Precip Events Conditions
12:20 AM 39.2 °F 37.0 °F 39.2 °F 100% 30.12 in 1.6 mi ESE 3.5 mph - N/A   Drizzle
12:50 AM 39.2 °F 37.0 °F 39.2 °F 100% 30.12 in 1.2 mi ENE 3.5 mph - N/A   Drizzle
1:20 AM 39.2 °F - 39.2 °F 100% 30.09 in 1.7 mi ESE 2.3 mph - N/A   Light Drizzle
1:50 AM 39.2 °F 37.0 °F 39.2 °F 100% 30.09 in 1.2 mi ENE 3.5 mph - N/A   Overcast
2:20 AM 39.2 °F - 39.2 °F 100% 30.09 in 0.7 mi Calm Calm - N/A   Overcast
2:50 AM 39.2 °F - 39.2 °F 100% 30.09 in 0.6 mi ENE 2.3 mph - N/A Fog Fog
3:20 AM 39.2 °F - 39.2 °F 100% 30.09 in 0.9 mi ENE 2.3 mph - N/A   Overcast
3:50 AM 39.2 °F 37.0 °F 39.2 °F 100% 30.06 in 1.1 mi ENE 3.5 mph - N/A   Overcast
4:20 AM 39.2 °F 35.9 °F 39.2 °F 100% 30.06 in 0.6 mi NE 4.6 mph - N/A Fog Fog
4:50 AM 39.2 °F 35.9 °F 39.2 °F 100% 30.06 in 0.6 mi ENE 4.6 mph - N/A Fog Fog
5:20 AM 39.2 °F 35.9 °F 37.4 °F 93% 30.06 in 0.7 mi ENE 4.6 mph - N/A   Overcast
5:50 AM 39.2 °F 35.9 °F 37.4 °F 93% 30.06 in 0.6 mi NE 4.6 mph - N/A   Overcast
6:20 AM 39.2 °F 35.9 °F 37.4 °F 93% 30.06 in 0.7 mi ENE 4.6 mph - N/A   Overcast
6:50 AM 39.2 °F 35.9 °F 37.4 °F 93% 30.06 in 0.9 mi ENE 4.6 mph - N/A   Overcast
7:20 AM 39.2 °F 37.0 °F 37.4 °F 93% 30.06 in 1.0 mi NNE 3.5 mph - N/A   Overcast
7:50 AM 39.2 °F 37.0 °F 37.4 °F 93% 30.06 in 0.7 mi NNE 3.5 mph - N/A   Overcast
8:20 AM 37.4 °F 32.1 °F 37.4 °F 100% 30.06 in 0.7 mi ENE 6.9 mph - N/A   Overcast
8:50 AM 39.2 °F 35.9 °F 39.2 °F 100% 30.06 in 1.9 mi East 4.6 mph - N/A   Overcast
9:20 AM 39.2 °F 35.9 °F 39.2 °F 100% 30.06 in 2.2 mi East 4.6 mph - N/A   Overcast
9:50 AM 39.2 °F 37.0 °F 39.2 °F 100% 30.06 in - ENE 3.5 mph - N/A   Overcast
10:20 AM 39.2 °F 35.0 °F 39.2 °F 100% 30.06 in 2.5 mi East 5.8 mph - N/A   Overcast
10:50 AM 39.2 °F 35.0 °F 39.2 °F 100% 30.06 in 3.7 mi ENE 5.8 mph - N/A   Overcast
11:20 AM 41.0 °F 38.0 °F 39.2 °F 93% 30.06 in 5.0 mi ENE 4.6 mph - N/A   Overcast
11:50 AM 41.0 °F 38.0 °F 39.2 °F 93% 30.04 in 5.6 mi East 4.6 mph - N/A   Overcast
12:20 PM 41.0 °F 36.4 °F 39.2 °F 93% 30.04 in 5.6 mi ENE 6.9 mph - N/A   Overcast
12:50 PM 41.0 °F 36.4 °F 39.2 °F 93% 30.04 in 5.6 mi ENE 6.9 mph - N/A   Overcast
1:20 PM 41.0 °F 36.4 °F 39.2 °F 93% 30.04 in 6.2 mi ENE 6.9 mph - N/A   Overcast
1:50 PM 41.0 °F 35.8 °F 39.2 °F 93% 30.04 in 6.2 mi ENE 8.1 mph - N/A   Overcast
2:20 PM 41.0 °F 37.1 °F 39.2 °F 93% 30.01 in 5.6 mi ENE 5.8 mph - N/A   Overcast
2:50 PM 41.0 °F 36.4 °F 39.2 °F 93% 30.01 in 5.6 mi NE 6.9 mph - N/A   Overcast
3:20 PM 41.0 °F 36.4 °F 39.2 °F 93% 29.98 in 5.0 mi NE 6.9 mph - N/A   Mostly Cloudy
3:50 PM 41.0 °F 35.8 °F 39.2 °F 93% 29.98 in 5.6 mi ENE 8.1 mph - N/A   Mostly Cloudy
4:20 PM 41.0 °F 36.4 °F 39.2 °F 93% 29.98 in 5.6 mi ENE 6.9 mph - N/A   Mostly Cloudy
4:50 PM 41.0 °F 36.4 °F 39.2 °F 93% 29.98 in 5.6 mi ENE 6.9 mph - N/A   Mostly Cloudy
5:20 PM 39.2 °F 33.6 °F 37.4 °F 93% 29.95 in 5.0 mi ENE 8.1 mph - N/A   Mostly Cloudy
5:50 PM 39.2 °F 33.0 °F 37.4 °F 93% 29.95 in 5.0 mi ENE 9.2 mph - N/A   Mostly Cloudy
6:20 PM 39.2 °F 32.5 °F 37.4 °F 93% 29.95 in 5.0 mi ENE 10.4 mph - N/A   Mostly Cloudy
6:50 PM 39.2 °F 32.5 °F 37.4 °F 93% 29.92 in 5.0 mi ENE 10.4 mph - N/A   Mostly Cloudy
7:20 PM 39.2 °F 33.0 °F 37.4 °F 93% 29.92 in 6.2 mi ENE 9.2 mph - N/A   Mostly Cloudy
7:50 PM 39.2 °F 33.0 °F 37.4 °F 93% 29.92 in 6.2 mi ENE 9.2 mph - N/A Rain Light Rain
8:20 PM 39.2 °F 33.6 °F 37.4 °F 93% 29.89 in 3.7 mi ENE 8.1 mph - N/A Rain Light Rain
8:50 PM 39.2 °F 33.6 °F 37.4 °F 93% 29.89 in 3.7 mi ENE 8.1 mph - N/A Rain Light Rain
9:20 PM 39.2 °F 33.0 °F 37.4 °F 93% 29.86 in 3.1 mi ENE 9.2 mph - N/A Rain Light Rain
9:50 PM 39.2 °F 33.0 °F 37.4 °F 93% 29.86 in 2.8 mi ENE 9.2 mph - N/A Rain Rain
10:20 PM 39.2 °F 33.0 °F 37.4 °F 93% 29.83 in 4.3 mi ENE 9.2 mph - N/A Rain Light Rain
10:50 PM 39.2 °F 33.0 °F 37.4 °F 93% 29.83 in 4.3 mi ENE 9.2 mph - N/A Rain Light Rain
11:20 PM 39.2 °F 33.0 °F 37.4 °F 93% 29.80 in 3.7 mi ENE 9.2 mph - N/A Rain Light Rain
11:50 PM 37.4 °F 30.8 °F 37.4 °F 100% 29.80 in 3.1 mi ENE 9.2 mph - N/A Rain Light Rain